Cut Bank, MT

10:17 AM MST on November 18, 2019 (GMT -0700)
Cut Bank Municipal

Weather History for KCTB - September, 2019

Change the Weather History Date:

Wednesday, September 4, 2019

  Actual Average Record
Temperature  
Mean Temperature 66 °F 58 °F  
Max Temperature 84 °F 73 °F 94 °F (2003)
Min Temperature 48 °F 43 °F 26 °F (1929)
Degree Days  
Heating Degree Days 0 8  
Month to date heating degree days 5 29  
Since 1 July heating degree days 178 223  
Cooling Degree Days 1 1  
Month to date cooling degree days 1 4  
Year to date cooling degree days 105 157  
Growing Degree Days 16 (Base 50)    
Moisture  
Dew Point 33 °F    
Average Humidity 30    
Maximum Humidity 55    
Minimum Humidity 11    
Precipitation  
Precipitation 0.00 in 0.04 in 1.92 in (1911)
Month to date precipitation 0.00 0.17  
Year to date precipitation 8.83 8.83  
Snow  
Snow - - - ()
Snow Depth 0.00 in    
Sea Level Pressure  
Sea Level Pressure 29.89 in    
Wind  
Wind Speed 10 mph ()    
Max Wind Speed 30 mph    
Max Gust Speed 44 mph    
Visibility 10.0 miles    
Events      
T = Trace of Precipitation, MM = Missing Value Source: Averaged Metar Reports

Daily Weather History Graph

Daily Weather History Graph

Search for Another Location

Airport or City:

Astronomy

Sep. 04, 2019 Rise Set
Actual Time 6:50 AM MDT 8:05 PM MDT
Civil Twilight 6:18 AM MDT 8:37 PM MDT
Nautical Twilight 5:39 AM MDT 9:16 PM MDT
Astronomical Twilight 4:57 AM MDT 9:58 PM MDT
Moon 1:25 PM MDT (9/4) 11:11 PM MDT (9/4)
Length of Visible Light 14h 19m
Length of Day
13h 14m
Waxing Crescent, 35% of the Moon is Illuminated
Sep 4
Waxing Crescent
Sep 5
First Quarter
Sep 13
Full
Sep 21
Last Quarter
Sep 28
New

Hourly Weather History & Observations

Time (MDT) Temp. Dew Point Humidity Pressure Visibility Wind Dir Wind Speed Gust Speed Precip Events Conditions
12:39 AM 63.0 °F 36.0 °F 37% 29.96 in 10.0 mi SE 8.1 mph - N/A   Partly Cloudy
12:56 AM 62.1 °F 35.1 °F 37% 29.86 in 10.0 mi SE 8.1 mph - N/A   Clear
1:56 AM 63.0 °F 35.1 °F 35% 29.84 in 10.0 mi ESE 4.6 mph - N/A   Scattered Clouds
2:56 AM 57.0 °F 37.9 °F 49% 29.83 in 10.0 mi NNW 4.6 mph - N/A   Clear
3:56 AM 55.9 °F 37.0 °F 49% 29.83 in 10.0 mi North - - N/A   Clear
4:56 AM 55.9 °F 39.9 °F 55% 29.83 in 10.0 mi West 9.2 mph - N/A   Clear
5:56 AM 55.0 °F 39.0 °F 55% 29.84 in 10.0 mi West 4.6 mph - N/A   Clear
6:56 AM 55.0 °F 39.0 °F 55% 29.86 in 10.0 mi WSW 3.5 mph - N/A   Clear
7:56 AM 64.9 °F 37.9 °F 37% 29.84 in 10.0 mi West 11.5 mph - N/A   Clear
8:56 AM 73.9 °F 36.0 °F 25% 29.84 in 10.0 mi WSW 20.7 mph - N/A   Clear
9:56 AM 75.9 °F 34.0 °F 22% 29.84 in 10.0 mi WSW 24.2 mph 33.4 mph N/A   Clear
10:42 AM 78.1 °F 32.0 °F 19% 29.94 in 10.0 mi WNW 15.0 mph - N/A   Clear
10:56 AM 78.1 °F 32.0 °F 19% 29.85 in 10.0 mi WNW 12.7 mph - N/A   Clear
11:56 AM 80.1 °F 25.0 °F 13% 29.86 in 10.0 mi West 20.7 mph 27.6 mph N/A   Clear
12:56 PM 82.0 °F 23.0 °F 11% 29.85 in 10.0 mi West 23.0 mph 33.4 mph N/A   Clear
1:56 PM 82.0 °F 24.1 °F 12% 29.86 in 10.0 mi West 12.7 mph 28.8 mph N/A   Clear
2:56 PM 82.9 °F 25.0 °F 12% 29.86 in 10.0 mi West 21.9 mph 26.5 mph N/A   Clear
3:56 PM 82.9 °F 27.0 °F 13% 29.87 in 10.0 mi West 15.0 mph 21.9 mph N/A   Clear
4:56 PM 82.0 °F 26.1 °F 13% 29.88 in 10.0 mi West 11.5 mph - N/A   Clear
5:56 PM 82.0 °F 28.0 °F 14% 29.88 in 10.0 mi WNW 15.0 mph 20.7 mph N/A   Clear
6:56 PM 78.1 °F 32.0 °F 19% 29.91 in 10.0 mi NW 11.5 mph - N/A   Clear
7:56 PM 68.0 °F 34.0 °F 28% 29.92 in 10.0 mi WNW 6.9 mph - N/A   Clear
8:56 PM 64.0 °F 30.9 °F 29% 29.94 in 10.0 mi WNW 10.4 mph - N/A   Clear
9:06 PM 62.1 °F 32.0 °F 32% 30.03 in 10.0 mi NNW 12.7 mph - N/A   Partly Cloudy
9:56 PM 62.1 °F 33.1 °F 34% 29.95 in 10.0 mi NW 10.4 mph - N/A   Clear
10:56 PM 60.1 °F 34.0 °F 38% 29.96 in 10.0 mi West 4.6 mph - N/A   Clear
11:56 PM 55.0 °F 36.0 °F 49% 29.98 in 10.0 mi Calm Calm - N/A   Clear